Location: Ellingshausen
(50.5460°N, 10.4723°E)
Time: 20:03:31
(UTC+00:00)

Cosmos 1943 Rocket - Pass Details

Date: 18 January 2026
Orbit: 811 x 842 km, 71.0° (Epoch: 16 February)

Event Time Altitude Azimuth Distance (km) Brightness Sun altitude
Exits shadow 06:07:09 - 251° (WSW) 2,908 4.5 -9.8°
Reaches altitude 10° 06:08:43 10° 258° (WSW) 2,400 4.1 -9.6°
Maximum altitude 06:13:22 28° 317° (NW) 1,504 3.0 -8.9°
Drops below altitude 10° 06:18:03 10° 15° (NNE) 2,414 4.5 -8.2°
Sets 06:20:51 0° 27° (NNE) 3,352 5.4 -7.8°
